Location: Newark
(39.6867°N, 100.6772°W)
Time: 16:12:23
(UTC+00:00)

deb Explorer IX - Visible Passes

Search period start: 21 October 2019 00:00
Search period end: 31 October 2019 00:00
Orbit: 545 x 1106 km, 38.8° (Epoch: 20 October)

Date Brightness Start Highest point End Pass type
(mag) Time Alt. Az. Time Alt. Az. Time Alt. Az.
21 Oct ? 01:14:57 10° W 01:20:51 32° SSW 01:27:07 10° SSE visible
22 Oct ? 00:53:06 10° W 00:58:49 31° SSW 01:04:59 10° SSE visible
23 Oct ? 00:31:15 10° W 00:36:48 30° SSW 00:42:50 10° SSE visible
24 Oct ? 00:09:27 10° W 00:14:48 29° SSW 00:20:40 10° SSE visible
